This is the latest recevied weather packets stored in our database for station/object DB0WUN-13. If no packets are shown the sender has not sent any weather packets the latest 1 day(s).
| Time | Temp. | Humidity | Pressure | Rain* | Wind** | Luminosity | Snow |
|---|---|---|---|---|---|---|---|
| 1778051377 | 12.22° C | 83% | 1007.3 hPa | 0 mm | 1.34 m/s, 243° | 246 W/m² | - |
| 1778051313 | 12.22° C | 83% | 1007.3 hPa | 0 mm | 1.34 m/s, 245° | 246 W/m² | - |
| 1778051252 | 12.22° C | 83% | 1007.3 hPa | 0 mm | 1.34 m/s, 257° | 246 W/m² | - |
| 1778051195 | 12.22° C | 83% | 1007.3 hPa | 0 mm | 1.34 m/s, 255° | 197 W/m² | - |
| 1778051129 | 12.22° C | 83% | 1007.3 hPa | 0 mm | 1.34 m/s, 217° | 158 W/m² | - |
| 1778051071 | 12.22° C | 84% | 1007.3 hPa | 0 mm | 1.34 m/s, 239° | 137 W/m² | - |
| 1778051008 | 12.22° C | 84% | 1007.3 hPa | 0 mm | 1.79 m/s, 288° | 239 W/m² | - |
| 1778050951 | 12.22° C | 83% | 1007.3 hPa | 0 mm | 1.79 m/s, 217° | 171 W/m² | - |
| 1778050887 | 12.22° C | 83% | 1007.3 hPa | 0 mm | 1.79 m/s, 217° | 156 W/m² | - |
| 1778050827 | 12.22° C | 83% | 1007.3 hPa | 0 mm | 1.79 m/s, 268° | 141 W/m² | - |
| 1778050763 | 12.22° C | 83% | 1007.3 hPa | 0 mm | 1.79 m/s, 227° | 149 W/m² | - |
| 1778050703 | 12.22° C | 83% | 1007.3 hPa | 0 mm | 2.24 m/s, 258° | 165 W/m² | - |
| 1778050639 | 12.22° C | 83% | 1007.2 hPa | 0 mm | 2.24 m/s, 283° | 171 W/m² | - |
| 1778050578 | 12.22° C | 83% | 1007.2 hPa | 0 mm | 1.79 m/s, 231° | 156 W/m² | - |
| 1778050520 | 12.22° C | 83% | 1007.3 hPa | 0 mm | 1.79 m/s, 243° | 148 W/m² | - |
| 1778050455 | 12.78° C | 83% | 1007.3 hPa | 0 mm | 1.79 m/s, 238° | 156 W/m² | - |
| 1778050395 | 12.78° C | 83% | 1007.2 hPa | 0 mm | 1.79 m/s, 222° | 193 W/m² | - |
| 1778050336 | 12.78° C | 84% | 1007.2 hPa | 0 mm | 1.79 m/s, 222° | 274 W/m² | - |
| 1778050275 | 12.22° C | 84% | 1007.2 hPa | 0 mm | 1.79 m/s, 217° | 343 W/m² | - |
| 1778050218 | 12.22° C | 85% | 1007.2 hPa | 0 mm | 1.79 m/s, 268° | 343 W/m² | - |
| 1778050155 | 12.22° C | 85% | 1007.2 hPa | 0 mm | 1.34 m/s, 265° | 343 W/m² | - |
| 1778050089 | 12.22° C | 85% | 1007.1 hPa | 0 mm | 1.34 m/s, 286° | 411 W/m² | - |
| 1778050033 | 12.22° C | 85% | 1007.2 hPa | 0 mm | 1.34 m/s, 243° | 283 W/m² | - |
| 1778049971 | 12.22° C | 85% | 1007.2 hPa | 0 mm | 1.34 m/s, 218° | 283 W/m² | - |
| 1778049918 | 12.22° C | 85% | 1007.2 hPa | 0 mm | 1.34 m/s, 278° | 283 W/m² | - |
* Rain latest hour (hover to see other rain measurements)
** Current wind speed in m/s (hover to see current wind gust speed)